Regional Weather Roundup
Issued by NWS

Home | Current Version | Previous Version | Graphics & Text | Print | Product List | Glossary On
Versions: 1 2 3 4 5 6 7 8 9 10 11 12 13 14 15 16 17 18 19 20 21 22 23 24 25 26 27 28 29 30 31 32 33 34 35 36 37 38 39 40 41 42 43 44 45 46 47 48 49 50
000
ASUS43 KBIS 301910
RWRND

NORTH DAKOTA REGIONAL WEATHER ROUNDUP
NATIONAL WEATHER SERVICE BISMARCK ND
200 PM CDT TUE SEP 30 2014

NOTE: "FAIR" INDICATES FEW OR NO CLOUDS BELOW 12,000 FEET WITH NO
SIGNIFICANT WEATHER AND/OR OBSTRUCTIONS TO VISIBILITY.


NDZ001>003-009>011-017-302000-
NORTHWEST NORTH DAKOTA

CITY           SKY/WX    TMP DP  RH WIND       PRES   REMARKS
WILLISTON      CLOUDY    56  53  90 E8        29.59F
MINOT          LGT RAIN  49  47  93 E17G23    29.65F
MINOT AFB      LGT RAIN  49  49 100 E16G23    29.65F
$$

NDZ018>021-031>035-040>046-302000-
SOUTHWEST NORTH DAKOTA

CITY           SKY/WX    TMP DP  RH WIND       PRES   REMARKS
BISMARCK       CLOUDY    55  53  93 E15       29.58F
DICKINSON      CLOUDY    53  51  93 E14       29.53F FOG
GARRISON         N/A     51  50  96 E13       29.61F
HETTINGER ARPT LGT RAIN  53  51  93 NE18      29.49F FOG
$$

NDZ004>008-012>016-024-026-027-054-302000-
NORTHEAST NORTH DAKOTA

CITY           SKY/WX    TMP DP  RH WIND       PRES   REMARKS
GRAND FORKS    PTSUNNY   57  44  62 SE18      29.79F
GRND FRKS AFB  PTSUNNY   58  46  65 SE15G23   29.79F
DEVILS LAKE    CLOUDY    50  43  76 SE18G26   29.72F
$$

NDZ022-023-025-028>030-036>039-047>053-302000-
SOUTHEAST NORTH DAKOTA

CITY           SKY/WX    TMP DP  RH WIND       PRES   REMARKS
FARGO          PTSUNNY   59  44  57 SE16G24   29.79F
JAMESTOWN      LGT RAIN  51  48  89 SE17G26   29.67F
$$




USA.gov is the U.S. government's official web portal to all federal, state and local government web resources and services.